This is the latest recevied weather packets stored in our database for station/object PA1CG-7. If no packets are shown the sender has not sent any weather packets the latest 10 day(s).
| Time | Temp. | Humidity | Pressure | Rain* | Wind** | Luminosity | Snow |
|---|---|---|---|---|---|---|---|
| 1777779136 | 15° C | 93% | 1010.3 hPa | 0.51 mm | - | - | - |
| 1777778537 | 15° C | 93% | 1010.4 hPa | 1.27 mm | - | - | - |
| 1777777937 | 15° C | 93% | 1010.5 hPa | 1.27 mm | - | - | - |
| 1777777337 | 15° C | 93% | 1010.6 hPa | 1.27 mm | - | - | - |
| 1777776737 | 15° C | 93% | 1010.7 hPa | 1.27 mm | - | - | - |
| 1777776136 | 15° C | 93% | 1011 hPa | 1.02 mm | - | - | - |
| 1777775537 | 15° C | 93% | 1011.2 hPa | 0.51 mm | - | - | - |
| 1777774937 | 15° C | 92% | 1011.5 hPa | 0.25 mm | - | - | - |
| 1777774337 | 15° C | 92% | 1011.4 hPa | 0.25 mm | - | - | - |
| 1777773736 | 15° C | 92% | 1011.4 hPa | 0.25 mm | - | - | - |
| 1777773136 | 15° C | 92% | 1011.3 hPa | 0.25 mm | - | - | - |
| 1777772536 | 15° C | 92% | 1011.4 hPa | 0.25 mm | - | - | - |
| 1777771936 | 15° C | 92% | 1011.4 hPa | 0.25 mm | - | - | - |
| 1777771336 | 15° C | 92% | 1011.5 hPa | 0 mm | - | - | - |
| 1777770736 | 15° C | 92% | 1011.5 hPa | 0 mm | - | - | - |
| 1777770137 | 14.44° C | 92% | 1011.4 hPa | 0 mm | - | - | - |
| 1777769536 | 14.44° C | 92% | 1011.4 hPa | 0 mm | - | - | - |
| 1777768937 | 14.44° C | 92% | 1011.5 hPa | 0 mm | - | - | - |
| 1777768336 | 14.44° C | 91% | 1011.7 hPa | 0 mm | - | - | - |
| 1777767736 | 14.44° C | 91% | 1011.8 hPa | 0.25 mm | - | - | - |
| 1777767136 | 14.44° C | 91% | 1011.8 hPa | 0.25 mm | - | - | - |
| 1777766537 | 15° C | 91% | 1011.8 hPa | 0.25 mm | - | - | - |
| 1777765936 | 15° C | 91% | 1011.8 hPa | 0.25 mm | - | - | - |
| 1777765337 | 15° C | 91% | 1011.8 hPa | 0.25 mm | - | - | - |
| 1777764736 | 15° C | 91% | 1012 hPa | 0.25 mm | - | - | - |
* Rain latest hour (hover to see other rain measurements)
** Current wind speed in m/s (hover to see current wind gust speed)